星链-34360 (STARLINK-34360)

导读

STARLINK-34360是美国SpaceX星链星座的一颗卫星,于2025年6月8日发射升空,归属美国所有。它是星链网络建设中的一员,主要为全球范围提供低延迟、高速率的宽带互联网服务,尤其服务偏远地区与网络基础设施薄弱区域,进一步扩充了星链星座的在轨服务规模,完善了低轨卫星互联网的覆盖能力。

基本信息
目录编号:
64304
目录名称:
STARLINK-34360
国际标识:
2025-123P
轨道中心:
EARTH
卫星名称:
星链-34360
卫星全名:
星链-34360 (STARLINK-34360)
卫星状态:
在轨 (已飞行370 天)
发射日期:
2025-06-08 UTC
国别 :
美国 (US)
星等 :
--
轨道信息
数据来源 国际轨道数据
星历时间: 2026-06-13T22:37:40+0800
9小时前
查看轨道信息
半长轴: 6950.205km
偏心率: 0.0003179
轨道倾角: 70.001°
近地点辐角 269.842°
升交点赤经 312.714°
平近点角 90.237°
近地点: 569.858km
远地点: 574.278km
周期: 96.107分钟
每日圈数: 14.983262
详细信息
固有亮度:
5
最大亮度:
2.5
卫星平台:
Starlink V1.0
覆盖范围:
全球
运营商:
太空探索技术公司
运营商所在国:
美国
制造商(研发单位):
太空探索技术公司
制造商所在国:
美国
使用方式:
暂无
卫星简介
Starlink 计划是 SpaceX 推出的全球卫星互联网项目,通过发射低轨道卫星,为全球尤其是偏远地区提供高速、低延迟的互联网服务。自 2019 年起,Starlink 已部署数千颗卫星,旨在缩小全球数字鸿沟,推动互联网普及。该项目还为军事、航空等行业提供通信支持,带来广泛经济效益。
2D轨道图
3D轨道图
轨道高度分析图
轨道倾角分析图
轨道综合分析图
查看轨道综合分析图